Simultaneous Nadir Overpasses (SNOs) Predictions

Prediction of SNOs between GOES-15 and NOAA-20 Satellite Orbit:

Table of predicted SNOs for the next 14.0 days since TLE Epoch: 7/6/2024
Index Date Time (GOES-15) GOES-15 Lat,Lon NOAA-20 Lat,Lon Distance(km) Time Diff (sec)
1 07/06/2024 21:36:08 -0.26, 61.20 0.70, 56.87 493.06 80
2 07/07/2024 21:20:04 -0.25, 61.20 -0.29, 61.40 23.26 80
3 07/10/2024 09:20:38 0.26, 61.14 0.15, 60.61 59.63 80
4 07/11/2024 09:04:33 0.25, 61.14 1.14, 65.14 456.83 80
5 07/12/2024 21:23:41 -0.28, 61.19 0.03, 59.87 151.59 80
6 07/13/2024 21:07:37 -0.26, 61.20 -0.97, 64.40 364.49 80
7 07/15/2024 09:26:55 0.30, 61.14 -0.16, 59.07 235.87 80
8 07/16/2024 09:10:51 0.29, 61.15 0.84, 63.60 279.90 80
9 07/17/2024 21:29:59 -0.32, 61.22 0.32, 58.32 329.43 80
10 07/18/2024 21:13:55 -0.31, 61.23 -0.68, 62.85 185.64 80
